Clarion, IA

5:15 AM CST on November 21, 2019 (GMT -0600)
Clarion Municipal

Weather History for KCAV - September, 2019

Change the Weather History Date:

Tuesday, September 17, 2019

  Actual Average Record
Temperature  
Mean Temperature 78 °F -  
Max Temperature 89 °F 71 °F 91 °F (2000)
Min Temperature 68 °F 48 °F 32 °F (1980)
Cooling Degree Days 14    
Growing Degree Days 28 (Base 50)    
Moisture  
Dew Point 70 °F    
Average Humidity 81    
Maximum Humidity 100    
Minimum Humidity 52    
Precipitation  
Precipitation 0.00 in - - ()
Sea Level Pressure  
Sea Level Pressure 30.00 in    
Wind  
Wind Speed 11 mph (SSE)    
Max Wind Speed 17 mph    
Max Gust Speed 25 mph    
Visibility 10 miles    
Events      
Averages and records for this station are not official NWS values.
T = Trace of Precipitation, MM = Missing Value Source: NWS Daily Summary

Daily Weather History Graph

Daily Weather History Graph

Search for Another Location

Airport or City:

Astronomy

Sep. 17, 2019 Rise Set
Actual Time 6:56 AM CDT 7:21 PM CDT
Civil Twilight 6:28 AM CDT 7:49 PM CDT
Nautical Twilight 5:55 AM CDT 8:23 PM CDT
Astronomical Twilight 5:20 AM CDT 8:57 PM CDT
Moon 9:20 PM CDT (9/17) 10:05 AM CDT (9/17)
Length of Visible Light 13h 21m
Length of Day
12h 24m
Waning Gibbous, 89% of the Moon is Illuminated
Sep 17
Waning Gibbous
Sep 21
Last Quarter
Sep 28
New
Oct 5
First Quarter
Oct 13
Full

Hourly Weather History & Observations

Time (CDT) Temp. Heat Index Dew Point Humidity Pressure Visibility Wind Dir Wind Speed Gust Speed Precip Events Conditions
12:15 AM 71.6 °F - 69.8 °F 94% 30.04 in 10.0 mi SSE 9.2 mph - N/A   Clear
12:35 AM 71.6 °F - 69.8 °F 94% 30.03 in 10.0 mi SE 9.2 mph - N/A   Partly Cloudy
12:55 AM 71.6 °F - 69.8 °F 94% 30.03 in 10.0 mi SSE 9.2 mph - N/A   Clear
1:15 AM 71.6 °F - 69.8 °F 94% 30.03 in 10.0 mi SSE 9.2 mph 15.0 mph N/A   Clear
1:35 AM 71.6 °F - 69.8 °F 94% 30.03 in 10.0 mi SSE 10.4 mph - N/A   Clear
1:55 AM 69.8 °F - 68.0 °F 94% 30.04 in 10.0 mi SSE 9.2 mph - N/A   Partly Cloudy
2:15 AM 69.8 °F - 68.0 °F 94% 30.03 in 10.0 mi SE 9.2 mph - N/A   Scattered Clouds
2:35 AM 69.8 °F - 68.0 °F 94% 30.03 in 10.0 mi SSE 9.2 mph - N/A   Mostly Cloudy
2:55 AM 69.8 °F - 68.0 °F 94% 30.03 in 10.0 mi SSE 10.4 mph - N/A   Mostly Cloudy
3:15 AM 68.0 °F - 68.0 °F 100% 30.03 in 10.0 mi SSE 9.2 mph - N/A   Scattered Clouds
3:35 AM 68.0 °F - 68.0 °F 100% 30.03 in 10.0 mi SSE 8.1 mph - N/A   Partly Cloudy
3:55 AM 68.0 °F - 68.0 °F 100% 30.03 in 10.0 mi SSE 9.2 mph - N/A   Scattered Clouds
4:15 AM 68.0 °F - 68.0 °F 100% 30.03 in 10.0 mi SSE 8.1 mph - N/A   Scattered Clouds
4:35 AM 68.0 °F - 68.0 °F 100% 30.03 in 10.0 mi SE 9.2 mph - N/A   Partly Cloudy
4:55 AM 68.0 °F - 68.0 °F 100% 30.04 in 10.0 mi SE 8.1 mph - N/A   Clear
5:15 AM 68.0 °F - 68.0 °F 100% 30.03 in 10.0 mi SE 8.1 mph - N/A   Clear
5:35 AM 68.0 °F - 68.0 °F 100% 30.03 in 10.0 mi SE 8.1 mph - N/A   Clear
6:15 AM 68.0 °F - 68.0 °F 100% 30.04 in 10.0 mi SE 9.2 mph 15.0 mph N/A   Clear
6:35 AM 68.0 °F - 68.0 °F 100% 30.05 in 10.0 mi SE 9.2 mph - N/A   Clear
6:55 AM 68.0 °F - 66.2 °F 94% 30.05 in 7.0 mi SSE 8.1 mph 15.0 mph N/A   Clear
7:15 AM 68.0 °F - 68.0 °F 100% 30.06 in 6.0 mi SSE 9.2 mph - N/A   Clear
7:35 AM 68.0 °F - 68.0 °F 100% 30.06 in 7.0 mi SSE 8.1 mph - N/A   Clear
7:55 AM 68.0 °F - 68.0 °F 100% 30.06 in 7.0 mi SSE 9.2 mph - N/A   Clear
8:15 AM 69.8 °F - 69.8 °F 100% 30.06 in 9.0 mi SSE 9.2 mph - N/A   Clear
8:55 AM 71.6 °F - 69.8 °F 94% 30.06 in 10.0 mi SSE 8.1 mph - N/A   Clear
9:15 AM 73.4 °F - 71.6 °F 94% 30.05 in 10.0 mi SSE 10.4 mph - N/A   Clear
9:35 AM 77.0 °F - 71.6 °F 83% 30.05 in 10.0 mi SSE 10.4 mph - N/A   Clear
9:55 AM 78.8 °F - 71.6 °F 78% 30.05 in 10.0 mi South 13.8 mph - N/A   Clear
10:15 AM 78.8 °F - 71.6 °F 78% 30.05 in 10.0 mi South 12.7 mph 18.4 mph N/A   Clear
10:35 AM 80.6 °F 84.6 °F 71.6 °F 74% 30.05 in 10.0 mi SSE 15.0 mph - N/A   Clear
10:55 AM 82.4 °F 87.2 °F 71.6 °F 70% 30.04 in 10.0 mi SSE 15.0 mph - N/A   Clear
11:15 AM 82.4 °F 87.2 °F 71.6 °F 70% 30.04 in 10.0 mi South 15.0 mph - N/A   Clear
11:35 AM 82.4 °F 87.2 °F 71.6 °F 70% 30.04 in 10.0 mi South 13.8 mph - N/A   Clear
11:55 AM 84.2 °F 89.6 °F 71.6 °F 66% 30.03 in 10.0 mi South 12.7 mph 20.7 mph N/A   Clear
12:15 PM 84.2 °F 89.6 °F 71.6 °F 66% 30.03 in 10.0 mi South 15.0 mph - N/A   Clear
12:35 PM 86.0 °F 91.8 °F 71.6 °F 62% 30.02 in 10.0 mi South 15.0 mph 23.0 mph N/A   Clear
12:55 PM 84.2 °F 89.6 °F 71.6 °F 66% 30.02 in 10.0 mi South 15.0 mph 21.9 mph N/A   Clear
1:15 PM 86.0 °F 91.8 °F 71.6 °F 62% 30.01 in 10.0 mi SSE 17.3 mph - N/A   Clear
1:35 PM 87.8 °F 93.8 °F 71.6 °F 58% 30.01 in 10.0 mi SSE 16.1 mph 24.2 mph N/A   Clear
1:55 PM 87.8 °F 92.6 °F 69.8 °F 55% 30.00 in 10.0 mi SSE 17.3 mph - N/A   Clear
2:15 PM 87.8 °F 92.6 °F 69.8 °F 55% 29.99 in 10.0 mi South 16.1 mph - N/A   Clear
2:35 PM 89.6 °F 96.2 °F 71.6 °F 55% 29.98 in 10.0 mi SSE 16.1 mph 23.0 mph N/A   Clear
2:55 PM 89.6 °F 96.2 °F 71.6 °F 55% 29.98 in 10.0 mi South 16.1 mph 24.2 mph N/A   Clear
3:15 PM 87.8 °F 92.6 °F 69.8 °F 55% 29.98 in 10.0 mi South 12.7 mph 24.2 mph N/A   Clear
3:35 PM 89.6 °F 94.7 °F 69.8 °F 52% 29.97 in 10.0 mi South 13.8 mph 21.9 mph N/A   Partly Cloudy
3:55 PM 89.6 °F 94.7 °F 69.8 °F 52% 29.97 in 10.0 mi South 17.3 mph 24.2 mph N/A   Clear
4:15 PM 87.8 °F 92.6 °F 69.8 °F 55% 29.96 in 10.0 mi SSE 16.1 mph 24.2 mph N/A   Clear
4:35 PM 87.8 °F 92.6 °F 69.8 °F 55% 29.95 in 10.0 mi South 16.1 mph 23.0 mph N/A   Clear
4:55 PM 87.8 °F 92.6 °F 69.8 °F 55% 29.95 in 10.0 mi South 16.1 mph 25.3 mph N/A   Clear
5:15 PM 87.8 °F 92.6 °F 69.8 °F 55% 29.95 in 10.0 mi SSE 15.0 mph - N/A   Clear
5:35 PM 86.0 °F 91.8 °F 71.6 °F 62% 29.95 in 10.0 mi SSE 13.8 mph 19.6 mph N/A   Clear
5:55 PM 86.0 °F 91.8 °F 71.6 °F 62% 29.95 in 10.0 mi SSE 12.7 mph - N/A   Clear
6:15 PM 84.2 °F 89.6 °F 71.6 °F 66% 29.94 in 10.0 mi SSE 13.8 mph - N/A   Clear
6:35 PM 84.2 °F 89.6 °F 71.6 °F 66% 29.94 in 10.0 mi SSE 10.4 mph 18.4 mph N/A   Clear
6:55 PM 82.4 °F 87.2 °F 71.6 °F 70% 29.94 in 10.0 mi SSE 11.5 mph - N/A   Clear
7:15 PM 80.6 °F 84.6 °F 71.6 °F 74% 29.94 in 10.0 mi SE 10.4 mph 17.3 mph N/A   Clear
7:35 PM 78.8 °F - 73.4 °F 83% 29.94 in 10.0 mi SE 11.5 mph 19.6 mph N/A   Clear
7:55 PM 78.8 °F - 73.4 °F 83% 29.94 in 10.0 mi SE 11.5 mph 18.4 mph N/A   Clear
8:15 PM 78.8 °F - 73.4 °F 83% 29.95 in 10.0 mi SE 11.5 mph 23.0 mph N/A   Clear
8:55 PM 77.0 °F - 73.4 °F 89% 29.96 in 10.0 mi SE 13.8 mph 20.7 mph N/A   Clear
9:15 PM 75.2 °F - 73.4 °F 94% 29.95 in 10.0 mi SE 11.5 mph 19.6 mph N/A   Clear
9:35 PM 75.2 °F - 73.4 °F 94% 29.96 in 10.0 mi SE 13.8 mph 25.3 mph N/A   Clear
9:55 PM 75.2 °F - 73.4 °F 94% 29.96 in 10.0 mi SE 13.8 mph 24.2 mph N/A   Clear
10:15 PM 75.2 °F - 73.4 °F 94% 29.96 in 10.0 mi SE 16.1 mph - N/A   Clear
10:35 PM 73.4 °F - 71.6 °F 94% 29.96 in 10.0 mi SSE 13.8 mph 20.7 mph N/A   Clear
10:55 PM 73.4 °F - 71.6 °F 94% 29.96 in - SE 11.5 mph 19.6 mph N/A   Unknown
11:15 PM 73.4 °F - 71.6 °F 94% 29.96 in 10.0 mi SSE 12.7 mph 18.4 mph N/A   Clear
11:35 PM 73.4 °F - 71.6 °F 94% 29.96 in 10.0 mi SSE 15.0 mph - N/A   Clear
11:55 PM 73.4 °F - 71.6 °F 94% 29.96 in 10.0 mi SSE 12.7 mph 18.4 mph N/A   Clear